Overview Statistics Trail Chart Weather Telemetry Raw packets
 

This is the latest recevied weather packets stored in our database for station/object LKCS. If no packets are shown the sender has not sent any weather packets the latest 10 day(s).

<< 17 18 19 20 21 22 23 >>
Time Temp. Humidity Pressure Rain* Wind** Luminosity Snow
1787999585 22.78° C 49% 1018 hPa - - - -
1787997769 22.22° C 53% 1018 hPa - - - -
1787995958 21.11° C 56% 1018 hPa - - - -
1787994200 22.22° C 53% 1018 hPa - - - -
1787992372 21.11° C 60% 1018 hPa - - - -
1787990607 20° C 64% 1018 hPa - - - -
1787988750 18.89° C 68% 1018 hPa - - - -
1787986968 17.78° C 72% 1018 hPa - - - -
1787985165 17.22° C 77% 1017 hPa - - - -
1787983387 17.22° C 77% 1017 hPa - - - -
1787981585 15° C 87% 1017 hPa - - - -
1787979761 15° C 87% 1017 hPa - - - -
1787977984 16.11° C 82% 1017 hPa - - - -
1787976160 16.11° C 82% 1017 hPa - - - -
1787974350 16.11° C 82% 1017 hPa - - - -
1787972585 16.11° C 82% 1017 hPa - - - -
1787970751 16.11° C 87% 1017 hPa - - - -
1787968987 16.11° C 93% 1017 hPa - - - -
1787967158 17.22° C 88% 1016 hPa - - - -
1787965369 16.11° C 93% 1017 hPa - - - -
1787963565 17.22° C 82% 1017 hPa - - - -
1787961787 17.78° C 77% 1017 hPa - - - -
1787959957 17.22° C 88% 1017 hPa - - - -
1787958187 17.78° C 82% 1016 hPa - - - -
1787956384 17.78° C 82% 1016 hPa - - - -

* Rain since midnight (hover to see other rain measurements)
** Current wind speed in m/s (hover to see current wind gust speed)